Window Rock, AZ

7:30 PM MDT on July 24, 2017 (GMT -0600)
Window Rock

Weather History for KRQE - January, 2014

Change the Weather History Date:

Thursday, January 30, 2014

  Actual Average Record
Temperature  
Mean Temperature 45 °F -  
Max Temperature 57 °F 45 °F 60 °F (1971)
Min Temperature 33 °F 15 °F -19 °F (1979)
Degree Days  
Heating Degree Days 20    
Moisture  
Dew Point 21 °F    
Average Humidity 38    
Maximum Humidity 51    
Minimum Humidity 26    
Precipitation  
Precipitation 0.00 in - - ()
Sea Level Pressure  
Sea Level Pressure 29.73 in    
Wind  
Wind Speed 11 mph (SW)    
Max Wind Speed 33 mph    
Max Gust Speed 48 mph    
Visibility 10 miles    
Events Rain    
Averages and records for this station are not official NWS values.
T = Trace of Precipitation, MM = Missing Value Source: NWS Daily Summary

Daily Weather History Graph

Daily Weather History Graph

Search for Another Location

Airport or City:

Trip Planner

Search our weather history database for the weather conditions in past years. The results will help you decide how hot, cold, wet, or windy it might be!

Date:

Astronomy

Jan. 30, 2014 Rise Set
Actual Time 7:17 AM MST 5:41 PM MST
Civil Twilight 6:50 AM MST 6:08 PM MST
Nautical Twilight 6:20 AM MST 6:39 PM MST
Astronomical Twilight 5:50 AM MST 7:09 PM MST
Moon 6:47 AM MST (1/30) 5:55 PM MST (1/30)
Length of Visible Light 11h 18m
Length of Day
10h 24m
Waning Crescent, 0% of the Moon is Illuminated
Jan 30
Waning Crescent
Jan 30
New
Feb 6
First Quarter
Feb 14
Full
Feb 22
Last Quarter

Hourly Weather History & Observations

Time (MST) Temp. Windchill Dew Point Humidity Pressure Visibility Wind Dir Wind Speed Gust Speed Precip Events Conditions
12:53 AM 33.1 °F - 10.9 °F 40% 29.83 in 10.0 mi Calm Calm - N/A   Clear
1:53 AM 37.9 °F 35.5 °F 14.0 °F 38% 29.78 in 10.0 mi Variable 3.5 mph - N/A   Clear
2:53 AM 36.0 °F - 14.0 °F 41% 29.79 in 10.0 mi Calm Calm - N/A   Clear
3:53 AM 33.1 °F 28.7 °F 15.1 °F 48% 29.79 in 10.0 mi South 4.6 mph - N/A   Clear
4:53 AM 37.9 °F 34.4 °F 21.0 °F 51% 29.76 in 10.0 mi South 4.6 mph - N/A   Clear
5:53 AM 37.0 °F 33.3 °F 18.0 °F 46% 29.80 in 10.0 mi South 4.6 mph - N/A   Clear
6:53 AM 37.9 °F 33.5 °F 15.1 °F 39% 29.83 in 10.0 mi SSW 5.8 mph - N/A   Clear
7:53 AM 39.0 °F 34.8 °F 14.0 °F 36% 29.83 in 10.0 mi South 5.8 mph - N/A   Clear
8:53 AM 43.0 °F 41.3 °F 17.1 °F 35% 29.82 in 10.0 mi SSE 3.5 mph - N/A   Clear
9:53 AM 48.9 °F - 19.0 °F 31% 29.81 in 10.0 mi SW 18.4 mph 25.3 mph N/A   Clear
10:53 AM 52.0 °F - 21.0 °F 30% 29.80 in 10.0 mi WSW 20.7 mph 35.7 mph N/A   Clear
11:53 AM 55.9 °F - 21.0 °F 26% 29.75 in 10.0 mi SW 24.2 mph 39.1 mph N/A   Clear
12:53 PM 55.0 °F - 21.0 °F 27% 29.70 in 10.0 mi WSW 23.0 mph 36.8 mph N/A   Clear
1:45 PM 57.9 °F - 24.1 °F 27% 29.83 in 4.0 mi WSW 29.9 mph 48.3 mph N/A   Haze
1:53 PM 57.9 °F - 24.1 °F 27% 29.64 in 10.0 mi WSW 33.4 mph 43.7 mph N/A   Clear
2:53 PM 57.0 °F - 25.0 °F 29% 29.65 in 10.0 mi WSW 25.3 mph 39.1 mph N/A   Clear
3:53 PM 55.9 °F - 26.1 °F 32% 29.66 in 10.0 mi WSW 25.3 mph 38.0 mph N/A   Partly Cloudy
4:53 PM 54.0 °F - 27.0 °F 35% 29.65 in 10.0 mi WSW 21.9 mph 31.1 mph N/A   Mostly Cloudy
5:53 PM 51.1 °F - 30.0 °F 44% 29.68 in 10.0 mi WSW 21.9 mph 42.6 mph 0.00 in Rain Light Rain
6:53 PM 50.0 °F - 28.0 °F 43% 29.66 in 10.0 mi SW 18.4 mph 28.8 mph 0.00 in   Mostly Cloudy
7:53 PM 48.9 °F - 27.0 °F 43% 29.66 in 10.0 mi SW 21.9 mph 28.8 mph N/A   Overcast
8:53 PM 48.0 °F - 26.1 °F 42% 29.63 in 10.0 mi SW 20.7 mph 27.6 mph N/A   Overcast
9:53 PM 48.0 °F - 26.1 °F 42% 29.61 in 10.0 mi WSW 19.6 mph 29.9 mph N/A   Overcast
10:53 PM 46.0 °F 38.8 °F 25.0 °F 44% 29.60 in 10.0 mi SW 18.4 mph 29.9 mph N/A   Clear
11:53 PM 43.0 °F 37.7 °F 24.1 °F 47% 29.60 in 10.0 mi SW 9.2 mph - N/A   Mostly Cloudy